Home > Weather > Oxford > Past weeks

Flag for United Kingdom Past Weather in Oxford, England, United Kingdom — Yesterday and Last 2 Weeks

Now
48 °F

Clear.


Feels Like: 48 °F
Forecast: 52 / 73 °F
Wind: 1 mph from East

Location: Benson

Current Time: Aug 30, 2016 at 6:23:19 AM

Latest Report: Aug 30, 2016 at 5:50 AM


Visibility: 5 mi

Pressure: 30.27 "Hg

Humidity: 100%

Dew Point: 48 °F

Location of OxfordLocation

Past Weather in Oxford — Graph

°F

Oxford Temperature Yesterday

Maximum temperature yesterday: 73 °F (at 2:50 PM)
Minimum temperature yesterday: 52 °F (at 11:50 PM)
Average temperature yesterday: 64 °F

High & Low Weather Summary for the Past Weeks

 TemperatureHumidityPressure
High84 °F (Aug 23, 1:50 PM)100% (Aug 16, 2:50 AM)30.30 "Hg (Aug 16, 2:50 AM)
Low45 °F (Aug 15, 5:50 AM)35% (Aug 23, 4:50 PM)29.62 "Hg (Aug 19, 5:50 PM)
Average65 °F76%30.00 "Hg
* Reported Aug 15 4:50 AM — Aug 30 4:50 AM, Oxford, Weather by CustomWeather, © 2016

Note: Actual official high and low records may vary slightly from our data, if they occured in-between our weather recording intervals... More about our weather records

Advertising

Oxford Weather History for the Previous 24 Hours

Scroll right to see more
 ConditionsComfort  
Time TempWeatherWind HumidityBarometerVisibility
4:50 AM
Tue, Aug 30
48 °FClear.No wind100%30.27 "HgN/A
3:50 AM48 °FClear.1 mph100%30.27 "HgN/A
2:50 AM52 °FClear.2 mph94%30.27 "HgN/A
1:50 AM52 °FClear.3 mph94%30.27 "HgN/A
12:50 AM52 °FClear.3 mph94%30.27 "HgN/A
11:50 PM
Mon, Aug 29
52 °FClear.2 mph94%30.27 "HgN/A
10:50 PM54 °FClear.2 mph88%30.24 "HgN/A
9:50 PM55 °FClear.No wind82%30.24 "HgN/A
8:50 PM57 °FSunny.3 mph82%30.24 "HgN/A
7:50 PM66 °FSunny.2 mph56%30.21 "HgN/A
6:50 PM72 °FSunny.5 mph44%30.21 "HgN/A
5:50 PM72 °FPassing clouds.8 mph41%30.21 "HgN/A
4:50 PM73 °FSunny.8 mph38%30.18 "HgN/A
3:50 PM72 °FPassing clouds.7 mph41%30.21 "HgN/A
2:50 PM73 °FPartly sunny.9 mph38%30.21 "HgN/A
1:50 PM70 °FSunny.8 mph46%30.21 "HgN/A
12:50 PM70 °FPassing clouds.9 mph53%30.18 "HgN/A
11:50 AM68 °FScattered clouds.8 mph60%30.18 "HgN/A
10:50 AM66 °FScattered clouds.6 mph68%30.18 "HgN/A
9:50 AM63 °FPartly sunny.7 mph83%30.18 "HgN/A
8:50 AM63 °FPartly sunny.6 mph83%30.15 "HgN/A
7:50 AM61 °FPartly sunny.5 mph88%30.15 "HgN/A
6:50 AM61 °FPartly cloudy.3 mph88%30.12 "HgN/A
Weather by CustomWeather, © 2016

See weather overviewHow to use our weather pages